• In Italy
  • List of Countries
  • For 7 days
  • Water Temperature
  • Satellite Maps
  • Weather Map
  • Weather Widgets
  • user-avatar
    Login

    Hourly Weather Tibissa

    Today, 20 May, Sunday

    Time Temperature Precipitation Wind Pressure Humidity
    00:00 +15°C° 0.7 mm 4 mps 683 mmHg 77%
    01:00 +16°C° 0 mm 3 mps 683 mmHg 80%
    02:00 +14°C° 0.1 mm 3 mps 682 mmHg 81%
    03:00 +14°C° 0.1 mm 3 mps 682 mmHg 82%
    04:00 +14°C° 0.1 mm 3 mps 682 mmHg 83%
    05:00 +14°C° 0 mm 3 mps 682 mmHg 82%
    06:00 +15°C° 0 mm 2 mps 682 mmHg 81%
    07:00 +15°C° 0 mm 2 mps 682 mmHg 77%
    08:00 +17°C° 0 mm 2 mps 682 mmHg 70%
    09:00 +18°C° 0 mm 2 mps 683 mmHg 64%
    10:00 +19°C° 0 mm 2 mps 683 mmHg 57%
    11:00 +20°C° 0.2 mm 2 mps 683 mmHg 54%
    12:00 +21°C° 0.2 mm 2 mps 683 mmHg 50%
    13:00 +21°C° 0 mm 2 mps 683 mmHg 47%
    14:00 +23°C° 0.1 mm 2 mps 683 mmHg 45%
    15:00 +24°C° 0.1 mm 3 mps 682 mmHg 42%
    16:00 +24°C° 0.1 mm 3 mps 682 mmHg 40%
    17:00 +24°C° 0.1 mm 3 mps 682 mmHg 42%
    18:00 +22°C° 0.1 mm 3 mps 682 mmHg 43%
    19:00 +22°C° 0.1 mm 3 mps 682 mmHg 45%
    20:00 +21°C° 0.1 mm 3 mps 682 mmHg 49%
    21:00 +20°C° 0.1 mm 3 mps 683 mmHg 53%
    22:00 +19°C° 0.1 mm 3 mps 683 mmHg 58%
    23:00 +19°C° 0.1 mm 3 mps 683 mmHg 62%

    Tomorrow, 21 May, Monday

    Time Temperature Precipitation Wind Pressure Humidity
    00:00 +18°C° 0.1 mm 3 mps 683 mmHg 65%
    01:00 +17°C° 0.1 mm 2 mps 683 mmHg 69%
    02:00 +17°C° 0.2 mm 2 mps 682 mmHg 71%
    03:00 +17°C° 0.2 mm 2 mps 682 mmHg 72%
    04:00 +18°C° 0.2 mm 1 mps 682 mmHg 74%
    05:00 +18°C° 0 mm 1 mps 682 mmHg 73%
    06:00 +17°C° 0 mm 2 mps 682 mmHg 72%
    07:00 +17°C° 0 mm 2 mps 682 mmHg 72%
    08:00 +18°C° 0 mm 2 mps 683 mmHg 64%
    09:00 +20°C° 0 mm 2 mps 683 mmHg 56%
    10:00 +21°C° 0 mm 2 mps 683 mmHg 48%
    11:00 +22°C° 0 mm 3 mps 683 mmHg 44%
    12:00 +24°C° 0 mm 3 mps 683 mmHg 39%
    13:00 +26°C° 0 mm 4 mps 684 mmHg 34%
    14:00 +26°C° 0 mm 4 mps 683 mmHg 34%
    15:00 +26°C° 0 mm 5 mps 683 mmHg 33%
    16:00 +26°C° 0 mm 5 mps 683 mmHg 32%
    17:00 +26°C° 0 mm 4 mps 683 mmHg 35%
    18:00 +25°C° 0 mm 4 mps 683 mmHg 38%
    19:00 +23°C° 0 mm 4 mps 683 mmHg 41%
    20:00 +22°C° 0.2 mm 3 mps 683 mmHg 48%
    21:00 +21°C° 0.2 mm 3 mps 684 mmHg 55%
    22:00 +19°C° 0.2 mm 3 mps 684 mmHg 62%
    23:00 +19°C° 0 mm 3 mps 684 mmHg 66%

    Day after tomorrow, 22 May, Tuesday

    Time Temperature Precipitation Wind Pressure Humidity
    00:00 +18°C° 0 mm 2 mps 683 mmHg 70%
    01:00 +18°C° 0 mm 2 mps 683 mmHg 74%
    02:00 +17°C° 0 mm 2 mps 683 mmHg 76%
    03:00 +17°C° 0 mm 2 mps 683 mmHg 79%
    04:00 +18°C° 0 mm 1 mps 683 mmHg 81%
    05:00 +18°C° 0.2 mm 1 mps 683 mmHg 80%
    06:00 +18°C° 0.2 mm 1 mps 683 mmHg 80%
    07:00 +18°C° 0.2 mm 1 mps 684 mmHg 79%
    08:00 +18°C° 0.6 mm 1 mps 684 mmHg 75%
    09:00 +18°C° 0.6 mm 2 mps 684 mmHg 71%
    10:00 +18°C° 0.6 mm 2 mps 684 mmHg 67%
    11:00 +19°C° 0.3 mm 2 mps 684 mmHg 61%
    12:00 +20°C° 0.3 mm 2 mps 684 mmHg 55%
    13:00 +21°C° 0.3 mm 2 mps 684 mmHg 49%
    14:00 +22°C° 0.1 mm 3 mps 684 mmHg 47%
    15:00 +22°C° 0.1 mm 3 mps 684 mmHg 45%
    16:00 +23°C° 0.1 mm 4 mps 685 mmHg 44%
    17:00 +22°C° 0.7 mm 4 mps 685 mmHg 48%
    18:00 +21°C° 0.7 mm 3 mps 685 mmHg 52%
    19:00 +20°C° 0.7 mm 3 mps 685 mmHg 56%
    20:00 +20°C° 0 mm 3 mps 685 mmHg 62%
    21:00 +19°C° 0 mm 3 mps 686 mmHg 68%
    22:00 +18°C° 0 mm 2 mps 686 mmHg 73%
    23:00 +17°C° 0 mm 2 mps 686 mmHg 77%

    23 May, Wednesday

    Time Temperature Precipitation Wind Pressure Humidity
    00:00 +18°C° 0 mm 1 mps 686 mmHg 80%
    01:00 +16°C° 0 mm 1 mps 686 mmHg 83%
    02:00 +16°C° 0 mm 1 mps 686 mmHg 84%
    03:00 +15°C° 0 mm 1 mps 686 mmHg 85%
    04:00 +15°C° 0 mm 1 mps 686 mmHg 87%
    05:00 +15°C° 0 mm 1 mps 686 mmHg 82%
    06:00 +16°C° 0 mm 1 mps 686 mmHg 78%
    07:00 +16°C° 0 mm 1 mps 687 mmHg 74%
    08:00 +19°C° 0 mm 1 mps 687 mmHg 63%
    09:00 +21°C° 0 mm 1 mps 688 mmHg 52%
    10:00 +22°C° 0 mm 1 mps 688 mmHg 41%
    11:00 +23°C° 0 mm 2 mps 688 mmHg 36%
    12:00 +25°C° 0 mm 2 mps 688 mmHg 31%
    13:00 +26°C° 0 mm 2 mps 689 mmHg 27%
    14:00 +26°C° 0 mm 2 mps 688 mmHg 25%
    15:00 +27°C° 0 mm 3 mps 688 mmHg 24%
    16:00 +28°C° 0 mm 3 mps 688 mmHg 23%
    17:00 +27°C° 0 mm 3 mps 688 mmHg 25%
    18:00 +26°C° 0 mm 3 mps 688 mmHg 28%
    19:00 +26°C° 0 mm 3 mps 688 mmHg 30%
    20:00 +25°C° 0 mm 3 mps 688 mmHg 36%
    21:00 +23°C° 0 mm 2 mps 688 mmHg 41%
    22:00 +21°C° 0 mm 2 mps 689 mmHg 46%
    23:00 +21°C° 0 mm 2 mps 689 mmHg 50%

    24 May, Thursday

    Time Temperature Precipitation Wind Pressure Humidity
    00:00 +20°C° 0 mm 2 mps 688 mmHg 54%
    01:00 +20°C° 0 mm 1 mps 688 mmHg 57%
    02:00 +20°C° 0 mm 1 mps 688 mmHg 59%
    03:00 +19°C° 0 mm 1 mps 687 mmHg 61%
    04:00 +19°C° 0 mm 1 mps 687 mmHg 63%
    05:00 +20°C° 0 mm 1 mps 687 mmHg 59%
    06:00 +21°C° 0 mm 1 mps 687 mmHg 56%
    07:00 +21°C° 0 mm 1 mps 687 mmHg 53%
    08:00 +23°C° 0 mm 1 mps 688 mmHg 46%
    09:00 +25°C° 0 mm 1 mps 688 mmHg 40%
    10:00 +27°C° 0 mm 1 mps 688 mmHg 33%
    11:00 +28°C° 0 mm 2 mps 688 mmHg 30%
    12:00 +29°C° 0 mm 3 mps 688 mmHg 27%
    13:00 +30°C° 0 mm 3 mps 688 mmHg 24%
    14:00 +30°C° 0 mm 4 mps 688 mmHg 23%
    15:00 +32°C° 0 mm 4 mps 687 mmHg 22%
    16:00 +32°C° 0 mm 4 mps 687 mmHg 22%
    17:00 +30°C° 0 mm 4 mps 687 mmHg 24%
    18:00 +29°C° 0 mm 4 mps 687 mmHg 27%
    19:00 +29°C° 0 mm 4 mps 687 mmHg 29%
    20:00 +27°C° 0 mm 3 mps 687 mmHg 33%
    21:00 +26°C° 0 mm 2 mps 687 mmHg 37%
    22:00 +25°C° 0 mm 2 mps 687 mmHg 40%
    23:00 +24°C° 0 mm 1 mps 687 mmHg 44%

    25 May, Friday

    Time Temperature Precipitation Wind Pressure Humidity
    00:00 +24°C° 0 mm 1 mps 686 mmHg 47%
    01:00 +21°C° 0 mm 0 mps 686 mmHg 50%
    02:00 +20°C° 0 mm 0 mps 686 mmHg 50%
    03:00 +22°C° 0 mm 1 mps 686 mmHg 51%
    04:00 +21°C° 0 mm 1 mps 686 mmHg 51%
    05:00 +22°C° 0 mm 1 mps 686 mmHg 48%
    06:00 +23°C° 0 mm 1 mps 686 mmHg 44%
    07:00 +24°C° 0 mm 1 mps 686 mmHg 41%
    08:00 +26°C° 0 mm 1 mps 687 mmHg 35%
    09:00 +28°C° 0 mm 2 mps 687 mmHg 30%
    10:00 +29°C° 0 mm 2 mps 687 mmHg 24%
    11:00 +30°C° 0 mm 2 mps 687 mmHg 22%
    12:00 +31°C° 0 mm 3 mps 687 mmHg 19%
    13:00 +33°C° 0 mm 3 mps 687 mmHg 16%
    14:00 +33°C° 0 mm 3 mps 687 mmHg 16%
    15:00 +34°C° 0 mm 4 mps 687 mmHg 15%
    16:00 +34°C° 0 mm 4 mps 686 mmHg 15%
    17:00 +33°C° 0 mm 4 mps 686 mmHg 18%
    18:00 +32°C° 0 mm 4 mps 686 mmHg 20%
    19:00 +30°C° 0 mm 5 mps 686 mmHg 23%
    20:00 +29°C° 0 mm 4 mps 686 mmHg 27%
    21:00 +27°C° 0 mm 4 mps 686 mmHg 32%
    22:00 +26°C° 0 mm 3 mps 686 mmHg 37%
    23:00 +25°C° 0 mm 2 mps 686 mmHg 41%
    Show more